www.pogodaiklimat.ru
ПОГОДА в Сан-Хосе
Время
и дата
18:47 17.07
20:47 17.07
05:47 18.07
06:59 18.07
07:47 18.07
08:47 18.07
09:47 18.07
10:47 18.07
11:47 18.07
12:47 18.07
13:47 18.07
14:47 18.07
15:47 18.07
16:47 18.07
17:47 18.07
18:47 18.07
19:47 18.07
20:55 18.07
05:55 19.07
06:47 19.07
07:51 19.07
08:49 19.07
09:47 19.07
10:47 19.07
12:47 19.07
13:50 19.07
14:48 19.07
15:50 19.07
16:47 19.07
17:47 19.07
18:47 19.07
19:55 19.07
20:55 19.07
05:55 20.07
06:47 20.07
07:55 20.07
08:59 20.07
09:51 20.07
10:47 20.07
11:50 20.07
13:47 20.07
14:47 20.07
15:47 20.07
19:50 20.07
20:47 20.07
05:55 21.07
06:47 21.07
07:47 21.07
Ветер
(напр.,м/с)
Видим. Явления Облачность Т
(С)
Тd
(С)
f
(%)
Тe
(С)
Тes
(С)
Комфортность P
(гПа)
Po
(гПа)
Тmin
(С)
Tmax
(С)
R
(мм)
R24
(мм)
S
(см)
СЗ 5 16 км ясно +23.0 +13.0 53 +26 +27 жарко 1010.2
СЗ 2 16 км ясно 1011.2
штиль 0 16 км ясно +16.0 +13.0 82 +16 +16 1010.9
штиль 0 16 км ясно +17.0 +13.0 77 +17 +18 1011.2
штиль 0 16 км ясно +18.0 +13.0 73 +18 +23 1011.5
штиль 0 16 км ясно +22.0 +13.0 57 +25 +34 комфорт 1011.5
СЗ 2 16 км ясно +24.0 +13.0 50 +26 +38 жарко 1011.2
З 3 16 км ясно +26.0 +14.0 48 +28 +42 жарко 1011.2
штиль 0 16 км ясно +27.0 +13.0 42 +29 +55 опасность
солнечного
удара
1010.9
СЗ 4 16 км ясно +30.0 +12.0 33 +31 +45 жарко 1010.5
З 4 16 км ясно +31.0 +12.0 31 +31 +45 жарко 1009.9
СЗ 1 16 км ясно +32.0 +12.0 29 +32 +52 опасность
солнечного
удара
1009.5
СЗ 5 16 км ясно +31.0 +14.0 36 +33 +40 душно 1009.5
СЗ 6 16 км ясно +29.0 +13.0 37 +30 +34 жарко 1009.5
СЗ 5 16 км ясно +28.0 +12.0 37 +29 +31 жарко 1010.2
СЗ 4 16 км ясно +26.0 +11.0 39 +27 +28 жарко 1010.5
СЗ 4 16 км ясно +23.0 +12.0 50 +26 +26 жарко 1011.2
СЗ 2 16 км ясно +22.0 +12.0 53 +24 +24 комфорт 1011.5
штиль 0 16 км ясно +17.0 +12.0 72 +17 +17 1011.2
штиль 0 16 км ясно +19.0 +13.0 68 +20 +21 1011.5
штиль 0 16 км ясно +21.0 +13.0 60 +23 +28 комфорт 1011.5
штиль 0 16 км ясно +23.0 +13.0 53 +26 +36 жарко 1011.2
С 2 16 км ясно +27.0 +12.0 39 +28 +40 жарко 1011.2
СЗ 2 16 км ясно +29.0 +11.0 33 +30 +46 жарко 1010.5
СЗ 4 16 км ясно +33.0 +10.0 24 +32 +46 жарко 1009.5
З 5 16 км ясно +35.0 +12.0 25 +35 +45 очень
жарко
1008.8
СЗ 6 16 км ясно +36.0 +10.0 21 +35 +42 очень
жарко
1008.2
СЗ 7 16 км ясно +35.0 +8.0 19 +33 +37 жарко 1007.8
СЗ 8
{9}
16 км ясно +33.0 +8.0 21 +31 +33 жарко 1007.8
СЗ 6 16 км ясно +32.0 +8.0 23 +31 +32 жарко 1007.8
СЗ 4 16 км ясно +30.0 +9.0 27 +29 +30 жарко 1008.5
СЗ 3 16 км ясно +28.0 +9.0 30 +28 +28 жарко 1009.2
СЗ 3 16 км ясно +26.0 +11.0 39 +27 +27 жарко 1009.5
штиль 0 16 км ясно +18.0 +12.0 68 +18 +18 1008.8
нст 2 16 км ясно +20.0 +12.0 60 +22 +23 комфорт 1009.2
С 2 16 км ясно +22.0 +12.0 53 +24 +28 комфорт 1009.5
штиль 0 16 км ясно +23.0 +12.0 50 +26 +35 жарко 1009.2
З 4 16 км ясно +27.0 +13.0 42 +29 +37 жарко 1009.2
С 2 16 км ясно +27.0 +14.0 45 +29 +45 жарко 1009.2
СЗ 3 16 км ясно +29.0 +14.0 40 +31 +47 жарко 1008.8
СЗ 6 16 км ясно +30.0 +14.0 38 +32 +40 жарко 1008.5
З 6 16 км ясно +29.0 +14.0 40 +31 +38 жарко 1008.2
СЗ 6 16 км ясно +28.0 +14.0 42 +30 +35 жарко 1007.8
СЗ 3 16 км ясно +22.0 +13.0 57 +25 +25 комфорт 1009.5
СЗ 4 16 км ясно +21.0 +13.0 60 +24 +24 комфорт 1010.2
штиль 0 16 км ясно +15.0 +12.0 82 +15 +15 1010.5
штиль 0 16 км 2/2 360 м +17.0 +12.0 72 +17 +18 1010.9
штиль 0 16 км 2/2 450 м +18.0 +13.0 73 +18 +22 1010.9
Местоположение метеостанции Reid-Hillview Airport of Santa Clara County: широта 37.3300 долгота -121.8200 высота над уровнем моря 41 м.
В архиве по умолчанию представлена погода в Сан-Хосе за последние 1-2 суток. Обновление информации о фактической погоде в базе происходит ежечасно! Архивные данные за месяц целиком и за предыдущие месяцы Вы можете получить, выбрав интересующий диапазон дат из раскрывающегося списка и нажав кнопку "Ввод!".
Внимание! Архив погоды МЕТАР в базе сайта по станциям, не включенным в климатический монитор, хранится не более 60 дней. Нет смысла пытаться выбрать более раннюю дату.
*Определитесь, кто Вы:
Внимание! Время в таблицах - местное (без учета летнего времени). Для получения всемирного времени необходимо вычесть поправку, которая равна -8 ч.
Смотрите также архив погоды в соседних городах и на ближайших метеорологических станциях:
Партнеры нашего сайта:      
Пояснения к столбцам:
  • Ветер - указаны скорость ветра в м/с - средняя за 10 мин, порывы в срок и между сроками (в фигурных скобках) и направление, откуда дует ветер: С - северный,
  • СВ - северо-восточный, В - восточный, ЮВ - юго-восточный, Ю - южный, ЮЗ - юго-западный, З - западный, СЗ - северо-западный.
  • Видимость - горизонтальная дальность видимости в метрах или километрах. При видимости от 1 до 10 км при отсутствии осадков обычно наблюдается дымка, при ухудшении видимости до 1 км и менее - туман. В сухую погоду видимость может ухудшаться дымом, пылью или мглою.
  • Явления - указаны атмосферные явления, наблюдавшиеся в срок или в последний час перед сроком; фигурными скобками обозначены явления, наблюдавшиеся между сроками (за 1-3 часа до срока); квадратными скобками обозначены град или гололедные отложения с указанием их диаметра в мм.
  • Облачность - указаны через наклонную черту общая и нижняя облачность в баллах и высота нижней границы облаков в метрах; квадратными скобками обозначены формы облаков: Ci - перистые, Cs - перисто-слоистые, Cc - перисто-кучевые, Ac - высококучевые, As - высокослоистые, Sc - слоисто-кучевые, Ns - слоисто-дождевые, Cu - кучевые, Cb - кучево-дождевые. Подробнее классификацию облаков см. в Атласе облаков (PDF).
  • T - Температура воздуха - температура, измеренная на высоте 2 м над землей.
  • Td - Температура точки росы - температура, при понижении до которой содержащийся в воздухе водяной пар достигнет насыщения.
  • f - Относительная влажность воздуха - влажноcть воздуха, измеренная на высоте 2 м над землей.
  • Te - Эффективная температура - температура, которую ощущает одетый по сезону человек в тени. Характеристика душности погоды. При расчете учитывается влияние влажности воздуха и скорости ветра на теплоощущения человека.
  • Tes - Эффективная температура на солнце - температура, которую ощущает человек, с поправкой на солнечный нагрев. Характеристика знойности погоды. Зависит от высоты солнца над горизонтом, облачности и скорости ветра. Ночью, в пасмурную погоду, а также при ветре 12 м/с и более поправка равна нулю.
  • P - Атмосферное давление - приведенное к уровню моря атмосферное давление.
  • Po - Атмосферное давление - измеренное на уровне метеостанции атмосферное давление.
  • Tmin - Минимальная температура - минимум температуры воздуха на высоте 2 м над землей.
  • Tmax - Максимальная температура - максимум температуры воздуха на высоте 2 м над землей.
  • R - Количество осадков - Количество выпавших осадков за период времени, мм. При наведении курсора мыши на число - период времени, за который выпало указанное количество осадков.
  • R24 - Количество осадков - Количество выпавших осадков за 24 часа, мм.
  • S - Снежный покров - Высота снежного покрова, см. При наведении курсора мыши на число - состояние снежного покрова и степень покрытия местности в баллах.